Location: Unspecified
(0.0000°N, 0.0000°E)
Time: 07:49:54
(UTC+00:00)

deb DAPP - Pass Details

Date: 20 December 2025
Orbit: 606 x 945 km, 99.0° (Epoch: 14 January)

Event Time Altitude Azimuth Distance (km) Brightness Sun altitude
Rises 19:02:45 0° 165° (SSE) 3,272 ? -14.9°
Reaches altitude 10° 19:04:59 10° 164° (SSE) 2,390 ? -15.4°
Maximum altitude 19:10:19 80° 77° (ENE) 875 ? -16.6°
Drops below altitude 10° 19:16:06 10° 350° (N) 2,578 ? -17.9°
Sets 19:18:35 0° 349° (N) 3,547 ? -18.5°
